Regional Weather Roundup
Issued by NWS

Home | Current Version | Previous Version | Text Only | Print | Product List | Glossary Off
Versions: 1 2 3 4 5 6 7 8 9 10 11 12 13 14 15 16 17 18 19 20 21 22 23 24 25 26 27 28 29 30 31 32 33 34 35 36 37 38 39 40 41 42 43 44 45 46 47 48 49 50

000
ASUS45 KBOU 241910
RWRCO

WEATHER ROUNDUP FOR COLORADO
NATIONAL WEATHER SERVICE DENVER/BOULDER CO
1200 PM MST SAT FEB 24 2018

NOTE: "FAIR" INDICATES FEW OR NO CLOUDS BELOW 12000 FEET WITH NO
SIGNIFICANT WEATHER AND/OR OBSTRUCTIONS TO VISIBILITY.

COZ001>005-013-030-031-242000-
...NORTHWEST COLORADO...

CITY           SKY/WX    TMP DP  RH WIND       PRES   REMARKS
CRAIG          MIX PCPN  19   8  62 W9        30.00F WCI   8
HAYDEN         FLURRIES  20  10  65 W7        29.97F WCI  11
MEEKER         PTSUNNY   22   1  40 W7        29.98F WCI  13
RANGELY        FAIR      26   4  39 W12G17    30.04F WCI  15
RABBIT EARS PA SNOW       1  -2  85 W14G26    29.73S VSB 1/2 WCI -17
STEAMBOAT SPGS CLOUDY    14   7  72 S3        29.95S
WALDEN         CLOUDY    14  -2  48 W22G32    29.81S WCI  -4
$$

COZ006>008-011-242000-
...WEST CENTRAL VALLEYS...

CITY           SKY/WX    TMP DP  RH WIND       PRES   REMARKS
GRAND JUNCTION FAIR      31  11  43 VRB3      30.06F
MONTROSE       FAIR      25   6  44 VRB3      30.08S
EAGLE          PTSUNNY   24   4  42 SW24G31   29.97F WCI   8
RIFLE          PTSUNNY   25   5  42 W16G24    30.04F WCI  12
DELTA          FAIR      34   1  24 SW9       30.07F WCI  26
NUCLA          FAIR      27  12  54 CALM      30.11F
$$

COZ017>023-064>068-242000-
...SOUTHWEST COLORADO...

CITY           SKY/WX    TMP DP  RH WIND       PRES   REMARKS
DURANGO        FAIR      29   2  31 W20G32    29.98F WCI  16
CORTEZ         FAIR      29   5  36 W15       30.07F WCI  18
PAGOSA SPRINGS FAIR      26  -7  23 S10G20    29.95F WCI  16
TELLURIDE      FAIR      18 -13  24 W3        29.96F
WOLF CREEK PAS CLOUDY     3   1  92 S17G26    29.84F WCI -17
$$

COZ009-010-012-014-032>034-037-058>063-242000-
...CENTRAL COLORADO...

CITY           SKY/WX    TMP DP  RH WIND       PRES   REMARKS
ASPEN          PTSUNNY   18   8  65 N12       29.90S WCI   5
BUENA VISTA    FAIR      25 -14  17 W5G33     29.80R WCI  19
COPPER MTN     CLOUDY     5  -2  72 W23G32    29.66F WCI -17
BERTHOUD PASS  HVY SNOW  -8 -17  65 MISG      29.47F VSB<1/4
COTTONWOOD PAS FAIR      19  -9  27 W29G58    29.70R WCI   1
GUNNISON       FAIR      20  -3  36 SW16G32   29.93S WCI   6
GRANBY         CLOUDY    12   5  71 W14       29.85F HAZE    WCI  -3
KREMMLING      CLOUDY    23   9  54 W7        29.91F WCI  15
LEADVILLE      PTSUNNY    9  -5  53 NW14G24   29.75F WCI  -7
MONARCH PASS   CLOUDY     1  -4  78 W52G58    29.78R WCI -30
SALIDA         FAIR      28  -3  26 SW24G33   29.90S WCI  14
SUNLIGHT       LGT SNOW N/A N/A N/A SW10G28   29.85S
WILKERSON PASS FAIR       9 -13  37 W17G31    29.62F WCI -10
$$

COZ069>075-242000-
...SAN LUIS VALLEY/SANGRE DE CRISTO MOUNTAINS...

CITY           SKY/WX    TMP DP  RH WIND       PRES   REMARKS
ALAMOSA        FAIR      30 -17  12 W14G28    29.87F WCI  19
DEL NORTE      FAIR      27  -5  25 SW16G23   29.87S WCI  15
LA VETA PASS   FAIR      19  -8  30 S24G52    29.84S WCI   2
SAGUACHE       FAIR      25  -6  26 NW29G43   29.87S WCI   8
$$

COZ035-036-038>040-242000-
...NORTHERN COLORADO FRONT RANGE...

CITY           SKY/WX    TMP DP  RH WIND       PRES   REMARKS
DENVER INTL AP FAIR      34   3  27 W28G38    29.74R WCI  21
AURORA         MOSUNNY   33   1  25 W14G20    29.74S WCI  23
FRONT RANGE AP MOSUNNY   36   0  21 W24G33    29.76S
ERIE MUNI ARPT FAIR      35   0  23 W12       29.80S WCI  26
BOULDER MUN AP FAIR      32   0  25 SW17G26   29.72F HAZE    WCI  21
CENTENNIAL     FAIR      31   1  28 NW20G28   29.74S WCI  19
BROOMFIELD     MOSUNNY   30   1  29 W29G41    29.74S WCI  15
FORT COLLINS   FAIR      30  13  49 E8        29.74F WCI  22
LONGMONT       FAIR      38   3  22 W15G21    29.75F
$$

COZ041-046-047-076>085-087-088-242000-
...PIKES PEAK/PALMER DIVIDE AND SOUTHERN FOOTHILLS...

CITY           SKY/WX    TMP DP  RH WIND       PRES   REMARKS
COLO. SPRINGS  FAIR      36  -5  17 W30G38    29.74F
A. F. ACADEMY  FAIR      33  -7  17 W28G39    29.71F WCI  20
SCHRIEVER AFB  NOT AVBL
CHEYENNE MTN   FAIR      31 -13  14 CALM      29.66F
ELLICOTT         N/A    N/A N/A N/A NW8G16    29.73F
FALCON         FAIR      33 -12  14 NW17G29   29.74S WCI  22
FORT CARSON    FAIR      37  -7  15 SW3       29.74F
LIMON          FAIR      35   5  28 NW17G30   29.75F WCI  25
MONUMENT HILL  FAIR      30  -6  21 W14G26    29.73S WCI  20
CANON CITY     MOSUNNY   41   0  17 W20G32    29.77F
WALSENBURG     NOT AVBL
TRINIDAD       FAIR      40 -11  11 NW29G36   29.80F
$$

COZ042>045-048>051-090-091-242000-
...NORTHEAST COLORADO...

CITY           SKY/WX    TMP DP  RH WIND       PRES   REMARKS
GREELEY ARPT   FAIR      31  12  45 CALM      29.77F
AKRON          FAIR      35   6  29 NW28G38   29.75F WCI  22
BURLINGTON     FAIR      38  18  44 NW21G29   29.77S
WRAY           FAIR      36  10  35 NW36G44   29.77F
YUMA           NOT AVBL
STERLING       FAIR      36   3  25 NW29G38   29.76F
HOLYOKE        FAIR      37  12  35 W28G38    29.76S
FORT MORGAN    FAIR      37  -3  18 NW25G32   29.78S
$$

COZ086-089-092>099-242000-
...SOUTHEAST COLORADO...

CITY           SKY/WX    TMP DP  RH WIND       PRES   REMARKS
PUEBLO         FAIR      43  -1  16 NW26G37   29.78F
LA JUNTA       FAIR      44  16  32 W13G24    29.81F
LAMAR          FAIR      43  24  47 W16G23    29.81F
SPRINGFIELD      N/A     42  21  43 NW17G31   29.82R
$$



USA.gov is the U.S. government's official web portal to all federal, state and local government web resources and services.